GW3478 Weather Reports


time (UTC)temp
C
wind
direction
speed
KPH
gust
KPH
rain 1hr
cm
rain 24hr
cm
rain mn
cm
humidity
%
barometer
mb
20260906234545 17 319 4.8 14.5 0.00 0.28 0.00 71 1015.4
20260906233044 17 331 8.0 16.1 0.00 0.28 0.00 72 1015.5
20260906231542 17 302 9.7 17.7 0.00 0.28 0.00 73 1015.6
20260906230058 17 271 12.9 22.5 0.00 0.28 0.00 74 1015.8
20260906224546 17 307 11.3 29.0 0.00 0.28 0.00 76 1015.9
20260906223047 17 296 11.3 24.1 0.00 0.28 0.00 78 1016.0
20260906221547 17 276 16.1 24.1 0.00 0.28 0.00 79 1016.1
20260906220052 17 274 11.3 19.3 0.00 0.28 0.00 77 1016.1
20260906214547 17 323 0.0 3.2 0.00 0.28 0.00 74 1016.1
20260906213045 17 63 1.6 6.4 0.00 0.28 0.00 73 1016.1
20260906211544 17 76 0.0 9.7 0.00 0.28 0.00 73 1016.1
20260906210049 17 89 6.4 12.9 0.00 0.28 0.00 73 1016.0
20260906204556 17 44 8.0 14.5 0.00 0.28 0.00 74 1016.1
20260906203050 17 76 3.2 14.5 0.00 0.28 0.00 74 1016.3
20260906201547 17 84 11.3 17.7 0.00 0.28 0.00 73 1016.3
20260906200050 16 65 12.9 20.9 0.00 0.28 0.00 72 1016.4
20260906194545 17 65 12.9 20.9 0.00 0.28 0.00 73 1016.5
20260906193046 17 83 3.2 14.5 0.00 0.28 0.00 74 1016.6
20260906191552 17 0 0.0 8.0 0.00 0.28 0.00 75 1016.6
20260906190054 16 327 1.6 14.5 0.00 0.28 0.00 77 1016.6
20260906184548 16 0 9.7 22.5 0.00 0.28 0.00 78 1016.7
20260906183049 16 69 17.7 24.1 0.00 0.28 0.00 78 1016.6
20260906181558 16 76 14.5 27.4 0.00 0.28 0.00 80 1016.9
20260906180052 16 69 20.9 35.4 0.00 0.28 0.00 83 1017.0
20260906174548 15 69 14.5 24.1 0.00 0.28 0.00 90 1017.0
20260906173047 13 80 25.7 38.6 0.00 0.28 0.00 91 1017.0
20260906171555 13 74 0.0 20.9 0.00 0.28 0.00 89 1017.7
20260906170051 13 322 16.1 27.4 0.00 0.28 0.00 89 1018.3
20260906164544 13 314 12.9 22.5 0.00 0.28 0.00 88 1018.4
20260906163045 12 265 12.9 22.5 0.00 0.28 0.00 88 1018.5
20260906161543 12 296 12.9 24.1 0.00 0.28 0.00 88 1018.3
20260906160051 12 313 20.9 29.0 0.00 0.28 0.00 89 1018.3
20260906154544 12 311 20.9 33.8 0.00 0.28 0.00 88 1018.4
20260906153044 12 303 20.9 33.8 0.00 0.28 0.00 87 1018.8
20260906151552 12 315 25.7 32.2 0.00 0.28 0.00 88 1018.9
20260906150045 12 301 29.0 41.8 0.00 0.28 0.00 88 1018.9
20260906144546 12 312 37.0 48.3 0.00 0.30 0.00 88 1018.8
20260906143042 12 316 29.0 48.3 0.00 0.30 0.00 88 1019.4
20260906141549 13 257 20.9 33.8 0.00 0.30 0.00 85 1019.2
20260906140049 15 329 0.0 3.2 0.00 0.30 0.00 84 1018.8
20260906134544 15 0 0.0 1.6 0.00 0.41 0.00 84 1018.9
20260906133051 15 0 0.0 1.6 0.00 0.41 0.00 83 1018.5
20260906131542 14 309 6.4 17.7 0.00 0.41 0.00 82 1018.5
20260906130119 15 321 0.0 9.7 0.00 0.41 0.00 84 1018.5
20260906124549 13 0 1.6 17.7 0.00 0.41 0.00 85 1018.8
20260906123045 13 296 16.1 24.1 0.00 0.41 0.00 84 1019.2
20260906121551 14 83 17.7 30.6 0.00 0.41 0.00 85 1018.2
20260906120107 13 0 1.6 14.5 0.00 0.41 0.00 84 1018.3
20260906114548 14 0 0.0 14.5 0.00 0.41 0.00 83 1018.6
20260906113052 14 355 0.0 6.4 0.00 0.41 0.00 83 1018.9
20260906111544 14 54 0.0 12.9 0.00 0.41 0.00 83 1018.8
20260906110044 14 85 1.6 11.3 0.00 0.41 0.00 83 1018.8
20260906104548 14 75 0.0 6.4 0.00 0.41 0.00 82 1018.8
20260906103053 14 0 1.6 16.1 0.00 0.41 0.00 83 1018.8
20260906101556 13 63 0.0 12.9 0.00 0.41 0.00 84 1018.8
20260906100045 13 0 1.6 8.0 0.00 0.41 0.00 84 1018.8
20260906094547 13 13 3.2 17.7 0.00 0.41 0.00 84 1018.8
20260906093052 13 352 3.2 22.5 0.00 0.41 0.00 84 1018.7
20260906091544 13 333 14.5 27.4 0.00 0.41 0.00 84 1018.9
20260906090051 14 321 6.4 27.4 0.00 0.41 0.00 84 1019.1
20260906084545 13 320 16.1 24.1 0.00 0.41 0.00 84 1019.5
20260906083045 14 329 14.5 32.2 0.00 0.41 0.00 84 1019.7
20260906081546 13 312 12.9 20.9 0.00 0.41 0.00 86 1019.9
20260906080053 14 292 6.4 12.9 0.00 0.41 0.00 84 1020.0
20260906074546 13 0 0.0 4.8 0.00 0.41 0.00 85 1019.8
20260906073044 13 334 0.0 4.8 0.00 0.41 0.00 85 1019.8
20260906071544 13 0 0.0 4.8 0.00 0.41 0.00 83 1019.9
20260906070054 13 311 1.6 14.5 0.00 0.41 0.00 82 1019.9
20260906064545 14 0 1.6 12.9 0.00 0.41 0.00 80 1020.1
20260906063045 14 294 1.6 22.5 0.00 0.41 0.00 81 1020.2
20260906061546 13 327 29.0 40.2 0.00 0.41 0.00 84 1020.4
20260906060059 13 275 1.6 6.4 0.00 0.41 0.00 83 1020.7
20260906054546 14 0 1.6 17.7 0.00 0.41 0.41 79 1020.4
20260906053044 13 321 6.4 19.3 0.03 0.41 0.41 82 1020.2
20260906051544 13 344 4.8 17.7 0.03 0.41 0.41 84 1019.9
20260906050054 13 323 11.3 19.3 0.03 0.41 0.41 83 1020.1
20260906044545 13 325 3.2 14.5 0.03 0.41 0.41 85 1020.0
20260906043043 13 334 3.2 17.7 0.00 0.38 0.38 84 1019.5
20260906041543 13 333 1.6 17.7 0.00 0.38 0.38 83 1019.7
20260906040050 13 336 6.4 22.5 0.25 0.38 0.38 82 1018.8
20260906034545 14 314 14.5 29.0 0.25 0.38 0.38 81 1019.1
20260906033045 14 345 12.9 24.1 0.25 0.38 0.38 79 1019.5
20260906031554 15 323 14.5 24.1 0.25 0.38 0.38 75 1020.0
20260906030050 16 261 12.9 19.3 0.00 0.13 0.13 64 1021.1
20260906024547 16 17 6.4 24.1 0.00 0.13 0.13 65 1018.5
20260906023050 16 121 3.2 19.3 0.00 0.13 0.13 63 1017.9
20260906021546 17 5 0.0 8.0 0.00 0.13 0.13 61 1017.9
20260906020050 17 346 0.0 6.4 0.00 0.13 0.13 59 1017.9
20260906014551 17 0 0.0 9.7 0.00 0.13 0.13 58 1017.9
20260906013046 18 35 0.0 8.0 0.00 0.13 0.13 57 1018.0
20260906011543 18 0 1.6 16.1 0.00 0.13 0.13 55 1018.1
20260906010044 19 59 1.6 9.7 0.00 0.13 0.13 54 1018.0
20260906004542 20 345 0.0 9.7 0.00 0.13 0.13 53 1018.0
20260906003044 20 317 19.3 37.0 0.00 0.13 0.13 53 1018.1
20260906001544 20 336 29.0 40.2 0.00 0.13 0.13 50 1018.1
20260906000045 21 313 19.3 33.8 0.00 0.13 0.13 49 1018.0